Flag for U.S.A. Weather past 2 weeks in Grand Junction, Colorado, U.S.A.

Now
46 °F

Overcast.


Feels Like: 41 °F
Forecast: 43 / 64 °F
Wind: 12 mph from Southeast

Location: Walker Field

Current Time: Sep 30, 2014 at 8:04:21 AM

Latest Report: Sep 30, 2014 at 6:53 AM


Visibility: 10 mi

Pressure: 29.92 "Hg

Humidity: 86%

Dew point: 42 °F

Location of Grand JunctionLocation

Historic Weather in Grand Junction — Graph

°F

Grand Junction temperature yesterday

Maximum temperature yesterday: 57 °F (at 1:53 PM)
Minimum temperature yesterday: 46 °F (at 4:53 AM)
Average temperature yesterday: 50 °F

Past Weeks' High & Low Weather Summary

 TemperatureHumidityPressure
High90 °F (Sep 20, 3:53 PM)100% (Sep 28, 4:53 AM)30.12 "Hg (Sep 28, 4:53 AM)
Low44 °F (Sep 30, 3:53 AM)16% (Sep 20, 6:53 PM)29.63 "Hg (Sep 27, 4:53 PM)
Average67 °F52%29.91 "Hg
* Reported Sep 15 6:53 AM — Sep 30 6:53 AM, Grand Junction, Weather by CustomWeather, © 2014

Note: Actual official high and low records may vary slightly from our data, if they occured in-between our weather recording intervals... More about our weather records

Advertising

Grand Junction weather history for previous 24 hours

 ConditionsComfort  
Time TempWeatherWind HumidityBarometerVisibility
6:53 AM
Sep 30
46 °FOvercast.12 mph86%29.92 "Hg10 mi
5:53 AM45 °FMostly cloudy.14 mph90%29.93 "Hg10 mi
4:53 AM44 °FPassing clouds.7 mph93%29.95 "Hg10 mi
3:53 AM44 °FClear.7 mph93%29.94 "Hg10 mi
2:53 AM46 °FClear.12 mph86%29.94 "Hg10 mi
1:53 AM45 °FPassing clouds.9 mph90%29.96 "Hg10 mi
12:53 AM46 °FPassing clouds.8 mph89%29.97 "Hg10 mi
11:53 PM
Sep 29
47 °FPassing clouds.9 mph86%29.98 "Hg10 mi
10:53 PM46 °FPassing clouds.8 mph89%29.97 "Hg10 mi
9:53 PM47 °FPassing clouds.5 mph90%29.96 "Hg10 mi
8:53 PM47 °FMostly cloudy.7 mph93%29.96 "Hg10 mi
7:53 PM47 °FScattered clouds.No wind93%29.95 "Hg10 mi
6:53 PM50 °FPassing clouds.3 mph80%29.94 "Hg10 mi
5:53 PM50 °FLight rain. Partly sunny.8 mph83%29.94 "Hg10 mi
4:53 PM49 °FLight rain. Mostly cloudy.No wind80%29.93 "Hg10 mi
3:53 PM54 °FBroken clouds.25 mph62%29.91 "Hg10 mi
2:53 PM57 °FSunny.8 mph62%29.86 "Hg10 mi
1:53 PM57 °FMore clouds than sun.13 mph74%29.87 "Hg10 mi
12:53 PM55 °FRain. Fog.10 mph90%29.87 "Hg6 mi
11:53 AM56 °FSunny.10 mph87%29.88 "Hg10 mi
10:53 AM55 °FPassing clouds.No wind77%29.91 "Hg10 mi
9:53 AM54 °FSunny.8 mph86%29.91 "Hg10 mi
8:53 AM52 °FSunny.9 mph86%29.91 "Hg10 mi
Weather by CustomWeather, © 2014

See weather overviewHow to use our weather pages